SCP
0 0 0 0 0 0 0 0 0 0 0 0 0 0 0 0 0 0 0 0 0 0 0 0 0 0 0 0 0 0 0 0 0 0 0 0 0 0 0 0 0 0 0 0
0 0 0 0 0 0 0 0 0 0 0 0 0 0 0 0 0 0 0 0 0 0 0 0 0 0 0 0 0 0 0 0 0 0 0 0 0 0 0 0 0 0 0 0
0 0 0 0 0 0 0 0 0 0 0 0 0 0 0 0 0 0 0 0 0 0 0 0 0 0 0 0 0 0 0 0 0 0 0 0 0 0 0 0 0 0 0 0
0 0 0 0 0 0 0 0 0 0 0 0 0 0 0 0 0 0 0 0 0 0 0 0 0 0 0 0 0 0 0 0 0 0 0 0 0 0 0 0 0 0 0 0
0 0 0 0 0 0 0 0 0 0 0 0 0 0 0 0 0 0 0 0 0 0 0 0 0 0 0 0 0 0 0 1 0 0 0 0 0 0 0 0 0 0 0 0
0 0 0 0 0 0 0 0 0 0 0 0 0 0 0 0 0 0 0 0 0 0 0 0 0 0 0 0 0 0 0 1 1 0 0 0 0 0 0 0 0 0 0 0
0 0 0 0 0 0 0 0 0 0 0 0 0 0 0 0 0 0 0 0 0 0 0 0 0 0 0 0 0 0 0 1 1 1 0 0 0 0 0 0 0 0 0 0
0 0 0 0 0 0 0 0 0 0 0 0 0 0 0 0 0 0 0 0 0 0 0 0 0 0 0 0 0 0 1 1 1 1 0 0 0 0 0 0 0 0 0 0
0 0 0 0 0 0 0 0 0 0 0 0 0 0 0 0 0 0 0 0 0 0 0 0 0 0 0 0 0 0 1 1 1 1 1 0 0 0 0 0 0 0 0 0
0 0 0 0 0 0 0 0 0 0 0 0 0 0 0 0 0 0 0 0 0 0 0 0 0 0 0 0 0 1 1 1 1 1 1 1 0 0 0 0 0 0 0 0
0 0 0 0 0 0 0 0 0 0 0 0 0 0 0 0 0 0 0 0 0 0 0 0 0 0 0 0 1 1 1 1 1 1 1 1 1 1 0 0 0 0 0 0
0 0 0 0 0 0 0 0 0 0 0 0 0 0 0 0 0 0 0 0 0 0 0 0 1 1 1 1 1 1 1 1 1 1 1 1 1 1 1 0 0 0 0 0
0 0 0 0 0 0 0 0 0 0 0 0 0 0 0 0 0 0 0 0 0 0 0 1 1 1 1 1 1 1 1 1 1 1 1 1 1 1 1 1 0 0 0 0
0 0 0 0 0 0 0 0 0 0 0 0 0 0 0 0 0 0 0 0 0 0 1 1 1 1 1 1 1 1 1 1 1 1 1 1 1 1 1 1 1 0 0 0
0 0 0 0 0 0 0 0 0 0 0 0 0 0 0 0 0 0 0 0 0 1 1 1 1 1 1 1 1 1 1 1 1 1 1 1 1 1 1 1 1 1 0 0
0 0 0 0 0 0 0 0 0 0 0 0 0 0 0 0 0 0 0 0 0 1 1 1 1 1 1 1 1 1 1 1 1 1 1 1 1 1 1 1 1 1 1 1
0 0 0 0 0 0 0 0 0 0 0 0 0 0 0 0 0 0 1 0 1 1 1 1 1 1 1 1 1 1 1 1 1 1 1 1 1 1 1 1 1 1 1 1
0 0 0 0 0 0 0 0 0 0 0 0 0 0 0 0 0 0 1 1 1 1 1 1 1 1 1 1 1 1 1 1 1 1 1 1 1 1 1 1 1 1 1 1
0 0 0 0 0 0 0 0 0 0 0 0 0 0 0 0 0 0 1 1 1 1 1 1 1 1 1 1 1 1 1 1 1 1 1 1 1 1 1 1 1 1 1 1
0 0 0 0 0 0 0 0 0 0 0 0 0 0 0 0 0 0 1 1 1 1 1 1 1 1 1 1 1 1 1 1 1 1 1 1 1 1 1 1 1 1 1 1
0 0 0 0 0 0 0 0 0 0 0 0 0 0 0 0 0 1 1 1 1 1 1 1 1 1 1 1 1 1 1 1 1 1 1 1 1 1 1 1 1 1 1 1
0 0 0 0 0 0 0 0 0 0 0 0 0 0 0 0 0 1 1 1 1 1 0 0 0 1 1 1 1 1 1 1 1 1 1 1 1 1 1 1 1 1 1 1
0 0 0 0 0 0 0 0 0 0 0 0 0 0 0 0 0 1 1 1 1 1 0 0 0 0 0 0 1 1 1 1 1 1 1 1 1 0 1 1 1 1 1 1
0 0 0 0 0 0 0 0 0 0 0 0 0 0 0 0 0 1 1 1 1 0 0 0 0 0 0 0 0 1 1 1 1 1 1 1 0 0 0 0 0 0 0 0
0 0 0 0 0 0 0 0 0 0 0 0 0 0 0 0 1 1 1 1 1 0 0 0 0 0 0 0 0 0 1 1 1 1 1 0 0 0 0 0 0 0 0 0
0 0 0 0 0 0 0 0 0 0 0 0 0 0 0 0 1 1 1 1 1 0 0 0 0 1 1 1 0 0 0 1 1 1 0 0 0 0 0 0 0 0 0 0
Wind_Speed
7 9 8 5 5 4 5 5 3 1 0 4 3 2 2 6 8 8 8 8 8 8 8 8 8 8 8 8 7 7 6 6 5 4 4 3 3 2 2 1 1 1 1 1
9 10 6 5 5 6 6 7 4 1 0 4 4 3 2 5 8 8 8 9 9 9 9 9 9 9 9 8 8 8 7 6 6 4 3 2 2 2 2 1 1 1 1 2
12 4 3 6 7 7 7 6 4 3 2 5 5 4 4 6 7 7 8 8 9 9 10 10 10 9 9 9 9 7 7 7 5 5 4 3 3 2 2 2 2 2 2 1
10 6 6 8 7 8 6 4 5 5 7 3 5 4 4 5 7 8 9 9 9 9 9 10 10 10 9 9 8 8 7 7 6 6 5 5 3 3 2 2 2 2 2 2
8 7 8 8 6 6 4 3 5 6 8 7 5 6 3 6 6 6 7 8 8 9 9 10 10 9 9 8 8 8 8 7 6 5 5 4 4 3 3 3 3 3 3 2
7 6 6 7 5 5 4 5 5 7 8 8 5 6 3 3 3 4 6 7 7 8 9 9 9 9 8 8 8 8 8 7 7 6 6 5 4 3 3 3 3 3 3 2
10 9 7 7 8 8 9 9 6 6 7 4 2 6 3 2 1 1 3 6 6 7 8 10 10 9 8 8 8 8 9 8 7 7 6 6 5 5 5 4 4 3 2 2
11 10 9 7 9 7 9 10 7 6 5 3 4 5 0 3 2 1 3 5 6 6 7 9 9 9 8 8 8 8 8 8 8 7 6 5 5 4 3 3 3 3 2 1
8 7 7 6 7 8 8 9 8 8 7 7 3 3 2 3 3 3 3 5 5 6 7 8 9 9 8 8 8 8 7 7 7 7 6 5 5 4 2 2 3 2 2 2
5 6 7 7 8 7 8 7 6 8 6 7 5 5 2 2 2 3 4 4 5 6 7 8 8 8 8 8 8 7 7 7 6 6 6 5 5 5 4 3 2 1 2 1
9 8 7 9 9 8 8 8 7 7 6 7 5 1 4 1 1 2 3 4 4 5 7 8 7 7 7 8 8 8 7 7 6 6 5 4 5 5 5 4 3 3 2 3
9 8 7 8 6 5 9 9 9 8 6 7 8 1 6 2 2 2 2 4 3 4 6 7 7 7 7 7 8 7 7 7 6 5 5 5 4 4 4 4 4 3 3 3
8 8 9 10 10 8 9 9 10 10 7 7 9 2 7 4 2 2 2 4 4 4 5 6 7 7 6 7 7 7 7 6 6 5 5 5 4 4 4 3 3 3 3 3
6 10 10 9 6 8 9 9 10 11 9 8 9 5 2 2 1 2 3 4 5 5 5 6 6 6 6 6 6 6 6 6 5 5 5 5 4 4 4 4 4 4 3 3
8 11 10 9 6 6 9 10 11 12 11 10 7 7 2 0 0 2 3 4 5 5 5 5 5 6 6 6 5 5 5 5 5 5 4 4 4 4 4 4 4 3 3 3
7 8 9 10 9 8 9 10 11 11 11 10 8 5 1 1 2 3 3 4 4 4 4 4 5 5 5 5 5 5 5 5 5 5 4 3 4 4 4 4 4 4 3 3
6 7 8 9 8 10 12 9 9 9 7 8 8 2 2 2 2 2 3 3 3 3 3 4 3 4 5 5 5 5 5 5 5 4 4 3 3 4 4 4 4 4 3 3
7 7 7 7 7 12 3 2 5 6 4 4 3 1 1 1 2 2 2 2 2 2 2 2 2 3 3 4 4 4 4 4 4 4 3 3 3 3 3 4 4 4 3 4
8 7 7 7 10 8 6 5 5 6 4 2 2 2 2 3 3 3 3 2 2 2 2 2 1 2 3 3 3 4 4 4 4 4 3 3 4 4 4 4 4 4 3 4
8 8 8 8 11 10 4 4 2 6 6 2 2 2 2 3 4 3 3 2 2 3 2 2 2 2 3 2 2 3 3 4 4 4 4 4 4 4 4 4 4 3 3 4
9 9 11 10 10 6 2 2 5 8 2 3 2 2 2 1 2 3 3 2 2 3 3 2 2 2 2 2 2 2 2 3 3 3 3 3 4 4 4 4 3 3 3 3
7 7 8 9 10 5 3 2 3 1 2 2 2 1 1 2 3 3 3 3 2 2 2 2 2 1 2 2 2 3 3 2 2 3 3 3 4 4 3 3 3 4 4 5
5 4 3 4 1 4 2 1 2 0 1 1 1 1 2 2 2 3 3 2 2 2 1 1 1 1 1 1 2 3 2 2 3 3 3 3 4 3 3 4 4 4 4 4
4 2 3 3 2 1 1 1 1 1 1 1 1 1 1 2 2 2 2 2 1 2 1 1 1 1 0 1 2 2 1 2 3 3 3 3 4 4 3 3 4 4 4 4
1 3 4 4 2 1 1 1 2 1 1 1 1 1 1 1 1 1 1 1 1 1 0 0 1 1 1 1 1 1 1 2 3 3 3 3 4 3 2 3 2 3 2 2
3 3 4 2 1 2 1 1 2 1 1 1 1 1 1 1 1 1 1 1 0 0 1 1 1 0 0 1 1 1 1 2 3 3 3 3 3 2 3 2 2 1 2 1
Wind_Direction
206 227 228 228 247 285 288 274 277 14 40 272 265 268 182 179 195 191 187 184 183 180 171 170 170 168 165 165 166 166 166 164 171 171 179 172 168 170 167 175 150 188 190 187
212 227 240 248 238 240 251 259 263 183 185 277 287 279 195 185 200 200 196 192 187 180 172 171 175 175 173 171 172 172 174 173 180 165 168 169 170 182 176 175 143 207 201 214
230 227 216 232 224 235 245 264 286 293 268 235 263 234 180 181 196 198 201 195 188 183 178 173 178 179 176 175 178 176 176 176 178 172 171 163 168 189 181 183 177 185 191 195
233 228 228 230 229 243 240 261 270 260 258 251 254 272 168 173 186 194 199 195 189 182 179 174 175 178 178 177 177 176 175 176 174 180 183 189 194 197 188 200 175 174 178 194
214 219 224 233 236 250 265 256 256 263 263 266 238 266 163 168 194 191 194 193 190 181 177 172 172 174 175 174 174 171 170 174 178 187 179 198 206 203 194 194 172 196 178 193
226 212 233 247 238 233 220 220 220 241 251 251 245 261 249 169 196 184 175 181 187 180 175 171 169 167 171 170 171 167 169 175 180 189 190 199 200 208 209 208 194 203 193 197
209 204 205 227 224 201 220 237 233 231 233 238 184 250 271 55 88 216 173 168 175 178 178 172 169 169 172 172 171 168 169 175 182 190 196 198 203 206 208 220 205 223 216 200
209 205 197 209 233 232 226 244 252 264 272 246 188 243 208 77 104 151 159 154 164 173 174 170 169 172 173 173 171 170 171 175 181 186 190 196 205 214 205 216 230 222 230 225
222 210 181 202 225 238 226 237 261 269 271 272 233 225 205 162 174 167 159 154 162 168 169 168 168 169 168 170 170 169 168 172 180 183 183 190 200 214 212 211 224 220 219 196
235 228 194 186 207 215 252 241 240 253 263 268 244 232 225 190 189 167 165 160 162 168 170 168 166 166 165 166 163 164 166 172 179 183 189 183 187 190 198 212 198 208 210 204
236 232 201 195 214 213 209 218 233 249 264 273 272 250 74 123 165 177 167 160 162 169 168 166 164 162 162 159 160 165 165 170 177 182 185 186 186 186 186 188 194 196 206 195
222 241 229 211 199 245 231 229 227 238 240 257 278 270 99 99 115 150 143 137 150 162 162 161 159 156 160 161 162 164 167 172 174 172 174 180 182 183 187 187 191 194 197 204
205 234 227 209 191 200 227 229 235 249 247 248 258 213 116 118 120 128 131 133 139 144 148 153 155 157 163 166 166 166 171 169 167 168 171 177 179 177 184 186 189 198 202 209
239 238 243 247 237 206 214 222 228 241 247 248 253 260 161 150 160 136 141 141 137 137 144 150 154 157 162 165 167 170 170 166 168 168 172 174 184 183 185 190 193 198 204 212
232 239 239 254 252 233 227 225 223 235 251 262 260 259 265 301 66 127 145 146 139 142 149 154 158 155 163 165 168 172 174 170 169 173 183 178 186 191 192 192 199 206 216 218
233 249 237 237 239 236 237 234 228 233 242 250 259 254 59 81 116 146 152 150 153 154 155 155 160 160 165 167 168 169 176 173 172 179 187 186 193 195 198 201 205 208 212 222
228 232 240 238 227 235 232 228 229 229 241 255 256 242 141 146 133 144 147 153 153 151 151 153 159 170 173 173 170 171 175 175 175 176 179 182 192 199 205 207 205 209 214 217
232 238 242 244 224 237 227 184 231 231 232 247 255 222 185 164 119 122 125 127 126 127 130 142 157 160 165 168 167 172 174 179 178 180 188 195 204 205 205 209 211 216 220 223
229 226 244 244 235 233 206 197 219 223 212 240 226 189 166 142 157 134 79 68 80 88 97 121 144 141 141 158 161 169 181 180 184 188 198 204 212 213 210 211 216 222 224 231
206 217 237 237 248 245 195 146 222 239 213 157 176 170 169 185 214 105 71 62 78 82 93 99 112 121 134 144 161 183 190 191 197 202 209 215 220 223 224 221 221 222 227 234
195 207 228 235 241 241 95 194 210 231 167 117 144 161 190 190 6 83 98 81 81 90 97 107 118 128 123 141 170 203 211 215 214 213 215 218 222 227 225 222 222 223 232 240
222 215 219 233 238 219 92 189 227 55 97 156 154 169 147 105 89 106 111 102 92 98 100 101 108 107 127 165 191 216 229 234 225 226 224 222 225 233 222 222 227 226 232 234
242 279 267 260 272 67 69 52 36 51 148 160 171 154 128 123 117 120 122 110 85 74 72 87 117 130 136 209 225 236 243 236 232 234 234 235 237 236 229 225 228 229 227 240
180 256 240 225 170 94 54 42 340 320 61 102 120 122 129 125 120 123 115 109 85 61 35 81 115 129 185 243 254 256 258 242 241 237 238 239 240 241 232 238 237 239 241 244
208 212 221 216 183 172 103 13 0 22 56 92 130 134 135 123 117 108 117 110 93 77 68 139 171 202 234 211 230 262 256 240 241 241 243 246 247 247 245 245 260 256 268 289
212 227 237 238 166 261 233 333 330 356 12 17 74 109 105 95 85 62 50 48 31 63 96 131 138 109 50 337 323 307 275 246 246 247 252 256 252 240 245 246 247 246 236 207